Weather Roundup
Issued by NWS Chicago, IL

Home | Current Version | Previous Version | Text Only | Print | Product List | Glossary On
Versions: 1 2 3 4 5 6 7 8 9 10 11 12 13 14 15 16 17 18 19 20 21 22 23 24 25 26 27 28 29 30 31 32 33 34 35 36 37 38 39 40 41 42 43 44 45 46 47 48 49 50
000
NZUS59 KLOT 241908
HRRLOT

CHICAGO AREA WEATHER ROUNDUP
NATIONAL WEATHER SERVICE CHICAGO/ROMEOVILLE IL
200 PM CDT THU MAY 24 2018

NOTE: "FAIR" INDICATES FEW OR NO CLOUDS BELOW 12,000 FEET WITH NO
SIGNIFICANT WEATHER AND/OR OBSTRUCTIONS TO VISIBILITY.

* THESE STATIONS ARE NOT UNDER NWS QUALITY CONTROL. THEY ALSO MAY NOT
  REPORT WEATHER SUCH AS PRECIPITATION OR FOG.

ILZ005-006-012>014-019>023-242000-
NORTHEAST ILLINOIS

CITY           SKY/WX    TMP DP  RH WIND       PRES   REMARKS
OHARE          PTSUNNY   84  55  36 VRB6      30.11F HX  83
MIDWAY           N/A     85  54  34 SE8       30.11F HX  83
AURORA           N/A     85  57  38 VRB3      30.12F HX  84
LANSING*         N/A     82  59  45 SE3       30.13F HX  82
JOLIET*          N/A     86  59  40 SE6       30.12F HX  85
WAUKEGAN         N/A     75  57  53 SE13      30.13F
DUPAGE AIRPORT   N/A     83  58  42 VRB5      30.12F HX  83
WHEELING         N/A     85  55  35 CALM      30.13F HX  83
KANKAKEE*        N/A     84  55  36 E8        30.13F HX  83
MORRIS*          N/A     85  55  34 SE7       30.11F HX  84
LEWIS AIRPORT*   N/A     84  56  38 S3        30.12F HX  83
NORTHERLY ISL    N/A     67  55  65 E9          N/A
$$

WIZ051-052-058>065-066-070>072-242000-
SOUTHEAST WISCONSIN

CITY           SKY/WX    TMP DP  RH WIND       PRES   REMARKS
MILWAUKEE      PTSUNNY   79  61  53 SE14      30.12F HX  80
KENOSHA*         N/A     81  58  45 SE14      30.13F HX  81
RACINE*          N/A     76  55  48 S15       30.15F
BURLINGTON       N/A     84  58  41 S7        30.12F HX  84
WAUKESHA       SUNNY     81  55  41 S8        30.14F HX  80
WEST BEND        N/A     82  55  39 CALM      30.11F HX  82
$$

INZ001>003-010>013-019-020-242000-
NORTHWEST INDIANA

CITY           SKY/WX    TMP DP  RH WIND       PRES   REMARKS
GARY*          MOSUNNY   84  46  26 SE8       30.14F HX  82
MICHIGAN CITY* NOT AVBL
RENSSELAER*    NOT AVBL
VALPARAISO       N/A     84  54  35 VRB6      30.15F HX  83
$$

LMZ740>746-242000-
SOUTHERN LAKE MICHIGAN

STATION/POSITION TIME  SKY/WX   TEMP WIND        PRES    VSBY
                                AIR  DIR/SP/G
                 (UTC)          (F)  (DEG/KT/KT) (MB)    (MI)
HARRISON CRIB    1840            75  110/ 17/ 17   N/A
BURNHAM HARBOR   1900            66   80/  9/ 11   N/A
CALUMET HARBOR   1848            71   60/  9/ 11 1019.9F
BURNS HARBOR     1840            69   30/  9/ 10 1021.0F
MICHIGAN CITY    1840            69   10/  7/  8   N/A
$$

ABBREVIATIONS USED IN REMARKS
   TC - TEMPERATURE IN CELSIUS
  WCI - WIND CHILL INDEX
   HX - HEAT INDEX
  VSB - VISIBILITY
$$




USA.gov is the U.S. government's official web portal to all federal, state and local government web resources and services.